Helicity
85 82 73 59 53 58 56 55 64 70 70 67 66 71 75 90 89 83 80 73 87 97
83 80 61 57 62 59 61 65 67 70 70 64 64 60 62 79 78 82 85 87 90 111
75 54 67 75 62 63 72 75 78 76 74 68 59 51 62 75 73 83 96 108 106 119
77 78 92 84 88 97 104 98 99 95 92 80 62 55 62 63 59 69 79 86 96 108
106 117 120 121 119 115 116 109 108 97 83 65 66 65 68 69 74 80 82 85 92 91
139 142 137 134 133 131 124 118 104 93 81 72 68 73 74 77 83 89 95 97 101 101
142 138 138 140 137 129 117 108 97 79 75 74 73 73 76 85 95 102 107 108 112 114
141 148 146 141 129 122 116 100 85 87 82 77 77 77 88 95 96 105 104 100 101 107
143 143 139 136 133 123 108 93 93 96 84 77 75 77 84 97 106 106 102 98 101 115
137 146 142 133 125 115 105 96 89 80 79 83 87 78 77 75 102 107 120 124 129 126
149 140 128 126 123 109 91 86 81 82 84 90 90 66 63 81 133 157 159 161 158 146
129 128 128 126 111 92 89 87 86 84 90 102 98 82 99 109 143 163 163 174 181 160
119 124 119 104 95 78 80 81 94 98 92 81 113 92 81 103 137 143 161 150 137 58
113 110 95 85 81 82 91 92 85 93 111 106 113 115 69 78 125 133 136 141 136 134
Wind_Speed
25 27 28 29 30 33 35 34 34 34 34 33 32 34 36 39 42 46 48 49 49 52
25 26 27 31 32 33 34 35 35 37 38 36 35 38 39 41 44 45 46 48 49 51
22 23 28 32 33 34 35 36 36 39 38 37 38 41 42 43 45 48 49 51 53 54
26 24 28 31 34 34 35 37 38 39 39 42 44 46 46 49 52 53 56 57 59 62
23 26 30 31 32 35 37 36 38 38 42 44 46 48 52 56 58 61 65 67 69 73
27 29 29 32 34 33 35 38 39 41 45 48 52 55 58 60 64 66 69 73 78 81
27 28 30 31 32 34 37 38 41 45 50 54 57 61 64 66 68 72 74 77 79 80
27 28 29 31 33 35 38 42 46 51 56 60 63 66 71 72 74 77 79 79 80 80
26 27 29 32 34 38 43 47 52 59 63 66 69 72 76 76 77 78 80 85 83 82
26 28 31 34 38 43 49 54 59 64 68 72 75 78 79 79 78 79 80 82 83 85
28 30 34 39 44 50 54 60 65 69 72 75 77 78 79 80 79 79 79 79 81 85
29 33 39 46 51 56 61 66 69 71 75 77 79 79 80 82 81 82 82 80 80 83
33 39 46 51 57 59 64 69 71 74 74 76 79 81 82 82 83 87 87 83 81 80
39 45 50 55 60 65 70 73 74 76 78 80 81 83 83 84 85 87 93 92 93 89
Wind_Direction
329 333 335 342 344 346 346 351 356 355 355 358 359 354 348 345 342 339 336 334 333 330
326 330 335 335 342 346 348 350 352 351 353 355 355 349 346 343 341 339 337 335 333 331
328 335 335 335 339 342 346 350 350 349 353 357 353 347 345 343 341 338 336 334 332 330
324 334 337 338 340 345 350 351 352 354 357 353 349 348 345 342 339 337 335 333 330 328
333 337 335 339 346 349 348 356 355 358 354 350 348 346 342 339 337 334 332 330 328 325
330 334 339 341 346 355 353 352 354 354 350 347 344 341 339 337 334 332 331 328 326 324
335 339 342 347 351 353 353 354 352 348 345 343 341 339 336 335 332 330 329 328 327 325
339 344 349 351 352 354 353 349 346 343 341 339 338 337 334 332 330 329 328 328 327 326
345 349 349 351 352 350 346 343 341 339 337 336 335 334 333 331 329 328 327 326 327 326
347 348 351 351 347 344 341 339 337 336 335 334 333 332 331 330 329 328 327 327 327 327
350 349 348 345 342 339 338 336 335 334 334 332 332 332 331 330 329 328 327 327 327 326
350 346 343 339 338 336 335 334 333 333 332 332 332 332 331 330 329 327 326 326 325 324
346 342 339 337 335 336 335 333 333 333 333 333 332 333 332 331 329 326 326 326 325 323
342 339 338 337 336 334 334 334 334 334 334 334 334 333 332 332 330 328 327 326 326 326